Weather in Grachev

Russia / Rostov Oblast     49°24′40″N   41°31′09″E
temp.,
°C
wind,
m/s
gust,
m/s
humid.,
%
clouds,
%
prec.,
mm/h
press.,
hPa
HPBL,
m
19 september, sun
sun1900:00+10ese7135477 0.0 1018328
03:00+10ese6135689 0.0 1018328
06:00+10ese71555100 0.0 1017360
09:00+14se81548100 0.0 1016524
12:00+18se9124299 0.0 1015991
15:00+21se101337100 0.0 10131466
18:00+20se81337100 0.0 10121117
21:00+19se91542100 0.0 1012879
20 september, mon
mon2000:00+15sse81571100 2.4 1011903
03:00+13sse101790100 11.1 1011671
06:00+13sse71492100 6.6 1010546
09:00+14sse81189100 7.2 1010515
12:00+17sse6879100 0.3 1010745
15:00+22wsw5748100 2.0 10091408
18:00+18w3460100 0.1 101152
21:00+15nw11635 0.1 101211
21 september, tue
tue2100:00+15ese1167100 0.0 101311
03:00+13sw117187 0.0 101211
06:00+12sw3468100 0.0 101348
09:00+16sw3558100 0.0 1013480
12:00+18wsw4649100 0.0 10131519
15:00+18ssw564324 0.0 10121725
18:00+15s47558 0.0 1012169
21:00+13nw346132 0.0 101379
22 september, wed
wed2200:00+13nnw2363100 0.0 1013126
03:00+12wnw2469100 0.0 1013185
06:00+11nw46786 0.0 1014344
09:00+13wnw337039 0.0 1015679
12:00+14w3353100 0.1 10151523
15:00+14sw1247100 0.1 10151017
18:00+14e235190 0.0 101571
21:00+13w1155100 0.0 101531
23 september, thu
thu2300:00+12n1260100 0.0 101574
03:00+11n1164100 0.0 101518
06:00+11ene2367100 0.0 1015104
09:00+14sse3461100 0.0 1014517
12:00+16s5640100 0.0 10141292
15:00+17s4538100 0.0 10131420
18:00+14sse3550100 0.0 1013157
21:00+11se1289100 1.8 1012125